CO3D 4

Last updated on Mon Sep 07 2026 00:02:46 GMT+0000 (Coordinated Universal Time)

1 64901U 25156C 26249.54474612 .00002216 00000+0 10544-3 0 9992 2 64901 97.4340 327.0680 0002019 55.2223 304.9202 15.20210264 61893
UTC large
Height (km)
Speed (km/s)
/
Latitude / Longitude
Inclination (degrees)
Orbital Period (minutes)
Azimuth
Elevation
Range (km)
Doppler Factor

Next 0 passes for location: London (51.5072 / 0.1276)

No passes found over London.
CO3D 4